Location: Sweet Grass
(48.9965°N, 111.9649°W)
Time: 08:50:15
(UTC+00:00)

SPROUT - Pass Details

Date: 07 April 2023
Orbit: 558 x 566 km, 98.0° (Epoch: 28 May)

Event Time Altitude Azimuth Distance (km) Brightness Sun altitude
Rises 23:33:38 0° 354° (N) 2,776 ? 23.9°
Enters shadow 00:23:28 -78° 148° (SSE) 13,068 ? 15.9°
Exits shadow 00:57:26 -25° 34° (NE) 6,523 ? 10.4°
